Location: Cudham
(51.3000°N, 0.0667°E)
Time: 03:18:33
(UTC+00:00)

Helios 1B - Pass Details

Date: 15 May 2026
Orbit: 603 x 606 km, 98.2° (Epoch: 8 June)

Event Time Altitude Azimuth Distance (km) Brightness Sun altitude
Rises 23:40:51 0° 14° (NNE) 2,873 9.3 -19.6°
Reaches altitude 10° 23:43:02 10° 14° (NNE) 1,964 8.2 -19.6°
Maximum altitude 23:47:19 89° 284° (WNW) 612 4.4 -19.6°
Enters shadow 23:48:28 48° 197° (SSW) 794 4.7 -19.6°
